Czyste, bezchmurne niebo
Czyste niebo z niewielką liczbą niskich chmur
Czyste niebo z niewielką liczbą niskich chmur
Czyste niebo z niewielką liczbą niskich chmur
Czyste niebo z niewielką liczbą niskich chmur
Czyste niebo z niewielką liczbą niskich chmur
Czyste niebo z niewielką liczbą niskich chmur
Czyste niebo z niewielką liczbą niskich chmur
Czyste, bezchmurne niebo
(°C)
25°
25°
24°
24°
23°
23°
22°
22°
22°
22°
21°
21°
21°
21°
21°
21°
21°
21°
(°C)
23°
21°
20°
20°
19°
19°
18°
18°
18°
SW
WSW
W
WNW
WNW
WNW
WNW
WNW
WNW
(km/h)
11-19
10-20
9-21
9-20
9-18
9-17
9-18
10-19
10-19
(mm)
0
0
0
0
0
0
0
0
0
(%)
0
0
0
0
0
0
0
0
0

Wysokość słońca

/ -7°
sun-icon
UV 8
06:41
21:32
Rosnący, garbaty księżyc (160°)
20:30
04:53

METAR dla Alcantarilla (LERI)

Czas Warunki Temperatura/
Punkt rosy
Wiatr Widzialność Pogoda Chmury Ciśnienie Zmień Surowy
VFR 28°C / 8°C 170º 11kt 9700m - Clouds and Visibility OK 1013 No Significant change LERI 201800Z 17011KT CAVOK 28/08 Q1013 NOSIG
VFR 29°C / 8°C 170º variable 140º to 210º 9kt 9700m - Clouds and Visibility OK 1013 No Significant change LERI 201730Z 17009KT 140V210 CAVOK 29/08 Q1013 NOSIG
VFR 29°C / 8°C 180º variable 150º to 220º 9kt 9700m - Clouds and Visibility OK 1013 No Significant change LERI 201700Z 18009KT 150V220 CAVOK 29/08 Q1013 NOSIG
VFR 29°C / 8°C 150º variable 110º to 170º 14kt 9700m - Clouds and Visibility OK 1013 No Significant change LERI 201630Z 15014KT 110V170 CAVOK 29/08 Q1013 NOSIG
VFR 30°C / 6°C 50º variable 310º to 110º 6kt 9700m - Clouds and Visibility OK 1013 No Significant change LERI 201600Z 05006KT 310V110 CAVOK 30/06 Q1013 NOSIG
VFR 29°C / 6°C 4kt 9700m - Clouds and Visibility OK 1013 No Significant change LERI 201530Z VRB04KT CAVOK 29/06 Q1013 NOSIG
VFR 30°C / 7°C 40º variable 360º to 110º 6kt 9700m - Clouds and Visibility OK 1013 No Significant change LERI 201500Z 04006KT 360V110 CAVOK 30/07 Q1013 NOSIG
VFR 30°C / 7°C 40º variable 340º to 090º 6kt 9700m - Few Clouds 6000ft 1013 No Significant change LERI 201430Z 04006KT 340V090 9999 FEW060 30/07 Q1013 NOSIG
VFR 30°C / 7°C 30º variable 270º to 080º 6kt 9700m - Few Clouds 6000ft 1013 No Significant change LERI 201400Z 03006KT 270V080 9999 FEW060 30/07 Q1013 NOSIG
VFR 29°C / 8°C 350º variable 270º to 080º 5kt 9700m - Few Clouds 6000ft 1014 No Significant change LERI 201330Z 35005KT 270V080 9999 FEW060 29/08 Q1014 NOSIG
VFR 29°C / 8°C 4kt 9700m - Few Clouds 6000ft 1014 No Significant change LERI 201300Z VRB04KT 9999 FEW060 29/08 Q1014 NOSIG
VFR 29°C / 8°C 350º 2kt 9700m - Few Clouds 6000ft 1014 No Significant change LERI 201230Z 35002KT 9999 FEW060 29/08 Q1014 NOSIG
VFR 28°C / 8°C 4kt 9700m - Few Clouds 6000ft 1014 No Significant change LERI 201200Z VRB04KT 9999 FEW060 28/08 Q1014 NOSIG
VFR 28°C / 9°C 10º variable 310º to 100º 6kt 9700m - Few Clouds 6000ft 1014 No Significant change LERI 201130Z 01006KT 310V100 9999 FEW060 28/09 Q1014 NOSIG
VFR 28°C / 9°C 3kt 9700m - Few Clouds 6000ft 1015 No Significant change LERI 201100Z VRB03KT 9999 FEW060 28/09 Q1015 NOSIG
VFR 26°C / 9°C 30º 2kt 9700m - Few Clouds 6000ft 1015 No Significant change LERI 201030Z 03002KT 9999 FEW060 26/09 Q1015 NOSIG
VFR 27°C / 10°C 2kt 9700m - Few Clouds 6000ft 1015 No Significant change LERI 201000Z VRB02KT 9999 FEW060 27/10 Q1015 NOSIG
VFR 26°C / 10°C 350º variable 290º to 080º 5kt 9700m - Few Clouds 4000ft 1015 No Significant change LERI 200930Z 35005KT 290V080 9999 FEW040 26/10 Q1015 NOSIG
VFR 25°C / 10°C 2kt 9700m - Few Clouds 4000ft 1015 No Significant change LERI 200900Z VRB02KT 9999 FEW040 25/10 Q1015 NOSIG
VFR 25°C / 10°C 2kt 9700m - Few Clouds 4000ft 1015 No Significant change LERI 200830Z VRB02KT 9999 FEW040 25/10 Q1015 NOSIG
VFR 24°C / 10°C 2kt 9700m - Few Clouds 4000ft 1015 No Significant change LERI 200800Z VRB02KT 9999 FEW040 24/10 Q1015 NOSIG
VFR 24°C / 10°C 120º variable 090º to 170º 3kt 9700m - Few Clouds 4000ft 1015 No Significant change LERI 200730Z 12003KT 090V170 9999 FEW040 24/10 Q1015 NOSIG
VFR 23°C / 10°C 280º 1kt 9700m - Clouds and Visibility OK 1015 No Significant change LERI 200700Z 28001KT CAVOK 23/10 Q1015 NOSIG
VFR 22°C / 11°C 260º variable 200º to 320º 4kt 9700m - Clouds and Visibility OK 1015 No Significant change LERI 200630Z 26004KT 200V320 CAVOK 22/11 Q1015 NOSIG

VFR

28°C / 8°C

[Więcej]
Wiatr 170º 11kt
Widzialność 9700m
Pogoda -
Chmury Clouds and Visibility OK
Ciśnienie 1013
Zmień No Significant change
Surowy LERI 201800Z 17011KT CAVOK 28/08 Q1013 NOSIG

VFR

29°C / 8°C

[Więcej]
Wiatr 170º variable 140º to 210º 9kt
Widzialność 9700m
Pogoda -
Chmury Clouds and Visibility OK
Ciśnienie 1013
Zmień No Significant change
Surowy LERI 201730Z 17009KT 140V210 CAVOK 29/08 Q1013 NOSIG

VFR

29°C / 8°C

[Więcej]
Wiatr 180º variable 150º to 220º 9kt
Widzialność 9700m
Pogoda -
Chmury Clouds and Visibility OK
Ciśnienie 1013
Zmień No Significant change
Surowy LERI 201700Z 18009KT 150V220 CAVOK 29/08 Q1013 NOSIG

VFR

29°C / 8°C

[Więcej]
Wiatr 150º variable 110º to 170º 14kt
Widzialność 9700m
Pogoda -
Chmury Clouds and Visibility OK
Ciśnienie 1013
Zmień No Significant change
Surowy LERI 201630Z 15014KT 110V170 CAVOK 29/08 Q1013 NOSIG

VFR

30°C / 6°C

[Więcej]
Wiatr 50º variable 310º to 110º 6kt
Widzialność 9700m
Pogoda -
Chmury Clouds and Visibility OK
Ciśnienie 1013
Zmień No Significant change
Surowy LERI 201600Z 05006KT 310V110 CAVOK 30/06 Q1013 NOSIG

VFR

29°C / 6°C

[Więcej]
Wiatr 4kt
Widzialność 9700m
Pogoda -
Chmury Clouds and Visibility OK
Ciśnienie 1013
Zmień No Significant change
Surowy LERI 201530Z VRB04KT CAVOK 29/06 Q1013 NOSIG

VFR

30°C / 7°C

[Więcej]
Wiatr 40º variable 360º to 110º 6kt
Widzialność 9700m
Pogoda -
Chmury Clouds and Visibility OK
Ciśnienie 1013
Zmień No Significant change
Surowy LERI 201500Z 04006KT 360V110 CAVOK 30/07 Q1013 NOSIG

VFR

30°C / 7°C

[Więcej]
Wiatr 40º variable 340º to 090º 6kt
Widzialność 9700m
Pogoda -
Chmury Few Clouds 6000ft
Ciśnienie 1013
Zmień No Significant change
Surowy LERI 201430Z 04006KT 340V090 9999 FEW060 30/07 Q1013 NOSIG

VFR

30°C / 7°C

[Więcej]
Wiatr 30º variable 270º to 080º 6kt
Widzialność 9700m
Pogoda -
Chmury Few Clouds 6000ft
Ciśnienie 1013
Zmień No Significant change
Surowy LERI 201400Z 03006KT 270V080 9999 FEW060 30/07 Q1013 NOSIG

VFR

29°C / 8°C

[Więcej]
Wiatr 350º variable 270º to 080º 5kt
Widzialność 9700m
Pogoda -
Chmury Few Clouds 6000ft
Ciśnienie 1014
Zmień No Significant change
Surowy LERI 201330Z 35005KT 270V080 9999 FEW060 29/08 Q1014 NOSIG

VFR

29°C / 8°C

[Więcej]
Wiatr 4kt
Widzialność 9700m
Pogoda -
Chmury Few Clouds 6000ft
Ciśnienie 1014
Zmień No Significant change
Surowy LERI 201300Z VRB04KT 9999 FEW060 29/08 Q1014 NOSIG

VFR

29°C / 8°C

[Więcej]
Wiatr 350º 2kt
Widzialność 9700m
Pogoda -
Chmury Few Clouds 6000ft
Ciśnienie 1014
Zmień No Significant change
Surowy LERI 201230Z 35002KT 9999 FEW060 29/08 Q1014 NOSIG

VFR

28°C / 8°C

[Więcej]
Wiatr 4kt
Widzialność 9700m
Pogoda -
Chmury Few Clouds 6000ft
Ciśnienie 1014
Zmień No Significant change
Surowy LERI 201200Z VRB04KT 9999 FEW060 28/08 Q1014 NOSIG

VFR

28°C / 9°C

[Więcej]
Wiatr 10º variable 310º to 100º 6kt
Widzialność 9700m
Pogoda -
Chmury Few Clouds 6000ft
Ciśnienie 1014
Zmień No Significant change
Surowy LERI 201130Z 01006KT 310V100 9999 FEW060 28/09 Q1014 NOSIG

VFR

28°C / 9°C

[Więcej]
Wiatr 3kt
Widzialność 9700m
Pogoda -
Chmury Few Clouds 6000ft
Ciśnienie 1015
Zmień No Significant change
Surowy LERI 201100Z VRB03KT 9999 FEW060 28/09 Q1015 NOSIG

VFR

26°C / 9°C

[Więcej]
Wiatr 30º 2kt
Widzialność 9700m
Pogoda -
Chmury Few Clouds 6000ft
Ciśnienie 1015
Zmień No Significant change
Surowy LERI 201030Z 03002KT 9999 FEW060 26/09 Q1015 NOSIG

VFR

27°C / 10°C

[Więcej]
Wiatr 2kt
Widzialność 9700m
Pogoda -
Chmury Few Clouds 6000ft
Ciśnienie 1015
Zmień No Significant change
Surowy LERI 201000Z VRB02KT 9999 FEW060 27/10 Q1015 NOSIG

VFR

26°C / 10°C

[Więcej]
Wiatr 350º variable 290º to 080º 5kt
Widzialność 9700m
Pogoda -
Chmury Few Clouds 4000ft
Ciśnienie 1015
Zmień No Significant change
Surowy LERI 200930Z 35005KT 290V080 9999 FEW040 26/10 Q1015 NOSIG

VFR

25°C / 10°C

[Więcej]
Wiatr 2kt
Widzialność 9700m
Pogoda -
Chmury Few Clouds 4000ft
Ciśnienie 1015
Zmień No Significant change
Surowy LERI 200900Z VRB02KT 9999 FEW040 25/10 Q1015 NOSIG

VFR

25°C / 10°C

[Więcej]
Wiatr 2kt
Widzialność 9700m
Pogoda -
Chmury Few Clouds 4000ft
Ciśnienie 1015
Zmień No Significant change
Surowy LERI 200830Z VRB02KT 9999 FEW040 25/10 Q1015 NOSIG

VFR

24°C / 10°C

[Więcej]
Wiatr 2kt
Widzialność 9700m
Pogoda -
Chmury Few Clouds 4000ft
Ciśnienie 1015
Zmień No Significant change
Surowy LERI 200800Z VRB02KT 9999 FEW040 24/10 Q1015 NOSIG

VFR

24°C / 10°C

[Więcej]
Wiatr 120º variable 090º to 170º 3kt
Widzialność 9700m
Pogoda -
Chmury Few Clouds 4000ft
Ciśnienie 1015
Zmień No Significant change
Surowy LERI 200730Z 12003KT 090V170 9999 FEW040 24/10 Q1015 NOSIG

VFR

23°C / 10°C

[Więcej]
Wiatr 280º 1kt
Widzialność 9700m
Pogoda -
Chmury Clouds and Visibility OK
Ciśnienie 1015
Zmień No Significant change
Surowy LERI 200700Z 28001KT CAVOK 23/10 Q1015 NOSIG

VFR

22°C / 11°C

[Więcej]
Wiatr 260º variable 200º to 320º 4kt
Widzialność 9700m
Pogoda -
Chmury Clouds and Visibility OK
Ciśnienie 1015
Zmień No Significant change
Surowy LERI 200630Z 26004KT 200V320 CAVOK 22/11 Q1015 NOSIG

TAF dla Alcantarilla (LERI)

From till


Maximum Temperature 33ºC on . Minimum Temperature 19ºC on .
From till Wind 190º 10kt. Visibility 9700m. Few Clouds 4000ft.
Becoming from till
Becoming from till

Surowy: TAF LERI 201700Z 2018/2118 19010KT 9999 FEW040 TX33/2115Z TN19/2105Z BECMG 2020/2022 27005KT BECMG 2113/2115 09010KT

Radar i prognoza opadów na teraz dla Alcantarilla

Mżawka
Lekkie
Umiarkowane
Intensywne
Bardzo Intensywne
Grad

Wskaźnik lokalizacji jest umieszczony na Alcantarilla. Ta animacja pokazuje radar opadów dla wybranego zakresu czasu, jak również prognozę 2h. Pomarańczowe krzyże oznaczają wyładowania atmosferyczne. Dane dostarczone przez nowcast.de (dostępne w USA, Europie, Australii). Mżawka lub lekki opad śniegu może być niewidoczny dla radaru. Intensywność opadów jest oznaczona kolorami, od turkusowego do czerwonego.

Aktualne zdjęcia satelitarne i zdjęcia opadów deszczu dla Alcantarilla, Hiszpania

Wskaźnik lokalizacji znajduje się na Alcantarilla. [Więcej]

Obraz satelitarny w czasie rzeczywistym łączy światło widzialne w ciągu dnia z promieniowaniem podczerwonym w nocy. W nocy obraz nie jest ciemny, ponieważ promieniowanie podczerwone może wykrywać różnice temperatur. Niestety niskie chmury i mgłę trudno odróżnić od temperatury gruntu, przez co mogą być prawie niewidoczne w nocy. Zdjęcia satelitarne Meteosat dla Europy są aktualizowane w czasie rzeczywistym co 5 minut. Obrazy GOES-16/GOES-17 (Ameryka Północna i Południowa) oraz Himawari (Azja) są aktualizowane co 10 minut.

Opady są szacowane na podstawie radarów i satelitów. Szacunki opadów z satelitów są mniej dokładne w nocy niż w ciągu dnia.

© 2024 meteoblue, NOAA Satellites GOES-16 and EUMETSAT. Dane dot. błyskawic dostarczone przez nowcast.

Powrót do góry
×
Hej tam,
wygląda na to, że używasz blokera reklam.

Reklama jest niezbędna do utrzymania naszej darmowej strony internetowej z wyjątkową szczegółowością i dokładnością.

Proszę whitelist www.meteoblue.com na swoim blokerze reklam lub rozważyć zakup jednego z naszych produktów:

Masz już subskrypcję?
Więc proszę login.